Date String (YYYY-MM-DD hh:mm:ss) UTC,Instrument flags,absolute air pressure of the measurement (hPa),sample flow rate (lpm),inlet stack bypass flow (lpm),air temperature of the measurement (°C),ambient temperature measured by the external sensor (°C),aerosol sample conditioner tube jacket temperature (°C),OPC LED temperature (°C),internal box temperature (°C),relative humidity of the measurement (%),span deviation,mass concentration of particles derived from Lorenz-Mie calculation of OPC scattering (μg/m³),mass concentration of particles derived from Lorenz-Mie calculation of OPC scattering (μg/m³),mass concentration of particles derived from Lorenz-Mie calculation of OPC scattering (μg/m³)
DateTimeUTC,F1_M11,P_M11,Q1_M11,Q2_M11,T1_M11,T2_M11,T3_M11,T4_M11,T5_M11,U1_M11,ZSPAN_M11,X0_M11,X2_M11,X1_M11
2024-01-19 18:00:00,SystemResetWarning,0835.9,4.99,000.00,018.8,018.2,000.0,027.1,020.2,11.5,0001.8,0016.60,0009.93,0008.88
2024-01-19 18:01:00,SystemResetWarning,0835.8,5.00,000.00,018.8,018.2,000.0,027.1,020.2,11.5,0001.7,0016.74,0009.94,0008.87
2024-01-19 18:02:00,SystemResetWarning,0835.8,5.00,000.00,018.9,018.2,000.0,027.1,020.2,11.6,0001.6,0017.50,0009.96,0008.87
2024-01-19 18:03:00,SystemResetWarning,0835.9,5.00,000.00,018.9,018.2,000.0,027.1,020.2,11.6,0001.4,0017.93,0009.96,0008.86
2024-01-19 18:04:00,SystemResetWarning,0835.9,5.00,000.00,018.9,018.2,000.0,027.1,020.2,11.5,0001.9,0018.86,0009.95,0008.85
2024-01-19 18:05:00,SystemResetWarning,0835.9,5.00,000.00,018.9,018.2,000.0,027.1,020.2,11.5,0002.0,0019.36,0009.95,0008.85
2024-01-19 18:06:00,SystemResetWarning,0835.8,5.00,000.00,018.9,018.2,000.0,027.1,020.3,11.5,0002.0,0019.39,0009.95,0008.84
2024-01-19 18:07:00,SystemResetWarning,0835.8,5.01,000.00,018.9,018.2,000.0,027.1,020.3,11.5,0001.9,0019.55,0009.95,0008.85
2024-01-19 18:08:00,SystemResetWarning,0835.7,5.01,000.00,018.9,018.3,000.0,027.1,020.3,11.5,0001.9,0019.56,0009.97,0008.85
2024-01-19 18:09:00,SystemResetWarning,0835.8,5.01,000.00,018.9,018.3,000.0,027.1,020.3,11.6,0002.1,0019.19,0009.98,0008.83
2024-01-19 18:10:00,SystemResetWarning,0835.8,4.99,000.00,018.9,018.3,000.0,027.2,020.3,11.7,0002.3,0019.10,0010.02,0008.81
2024-01-19 18:11:00,SystemResetWarning,0835.8,4.99,000.00,018.9,018.3,000.0,027.2,020.3,11.5,0002.2,0019.32,0010.03,0008.79
2024-01-19 18:12:00,SystemResetWarning,0835.8,5.00,000.00,019.0,018.3,000.0,027.2,020.3,11.4,0001.9,0018.94,0010.03,0008.77
2024-01-19 18:13:00,SystemResetWarning,0835.7,4.99,000.00,019.0,018.3,000.0,027.2,020.3,11.6,0002.0,0018.04,0010.02,0008.74
2024-01-19 18:14:00,SystemResetWarning,0835.6,4.99,000.00,019.0,018.3,000.0,027.2,020.3,11.5,0002.2,0017.82,0009.99,0008.72
2024-01-19 18:15:00,SystemResetWarning,0835.7,5.01,000.00,019.0,018.4,000.0,027.2,020.3,11.4,0002.1,0016.97,0009.94,0008.68
2024-01-19 18:16:00,SystemResetWarning,0835.6,5.01,000.00,019.0,018.4,000.0,027.2,020.3,11.5,0002.1,0016.34,0009.91,0008.65
2024-01-19 18:17:00,SystemResetWarning,0835.6,5.00,000.00,019.0,018.4,000.0,027.2,020.3,11.6,0002.1,0015.87,0009.85,0008.64
2024-01-19 18:18:00,SystemResetWarning,0835.6,5.00,000.00,019.0,018.4,000.0,027.2,020.4,11.6,0002.4,0015.35,0009.80,0008.62
2024-01-19 18:19:00,SystemResetWarning,0835.6,5.00,000.00,019.0,018.4,000.0,027.2,020.4,11.6,0002.4,0015.24,0009.77,0008.63
2024-01-19 18:20:00,SystemResetWarning,0835.5,4.99,000.00,019.0,018.4,000.0,027.2,020.4,11.5,0002.1,0015.51,0009.73,0008.62
2024-01-19 18:21:00,SystemResetWarning,0835.5,5.00,000.00,019.0,018.4,000.0,027.3,020.4,11.5,0001.9,0015.48,0009.76,0008.65
2024-01-19 18:22:00,SystemResetWarning,0835.5,5.00,000.00,019.1,018.4,000.0,027.3,020.4,11.5,0002.1,0015.29,0009.76,0008.66
2024-01-19 18:23:00,SystemResetWarning,0835.5,5.01,000.00,019.1,018.4,000.0,027.3,020.4,11.5,0002.4,0015.17,0009.74,0008.70
2024-01-19 18:24:00,SystemResetWarning,0835.5,5.01,000.00,019.1,018.5,000.0,027.3,020.4,11.5,0002.5,0015.20,0009.73,0008.74
2024-01-19 18:25:00,SystemResetWarning,0835.5,5.00,000.00,019.1,018.5,000.0,027.3,020.4,11.4,0002.5,0015.07,0009.81,0008.77
2024-01-19 18:26:00,SystemResetWarning,0835.5,5.00,000.00,019.1,018.5,000.0,027.3,020.4,11.4,0002.6,0014.73,0009.84,0008.82
2024-01-19 18:27:00,SystemResetWarning,0835.4,5.00,000.00,019.1,018.5,000.0,027.3,020.4,11.6,0002.7,0015.21,0009.84,0008.83
2024-01-19 18:28:00,SystemResetWarning,0835.5,4.99,000.00,019.1,018.5,000.0,027.3,020.4,11.7,0002.9,0015.58,0009.86,0008.83
2024-01-19 18:29:00,SystemResetWarning,0835.5,5.00,000.00,019.1,018.5,000.0,027.3,020.4,11.6,0002.7,0015.57,0009.93,0008.86
2024-01-19 18:30:00,SystemResetWarning,0835.3,5.01,000.00,019.1,018.5,000.0,027.3,020.4,11.5,0002.7,0015.57,0009.98,0008.88
2024-01-19 18:31:00,SystemResetWarning,0835.4,5.00,000.00,019.1,018.5,000.0,027.3,020.4,11.5,0003.1,0015.08,0010.02,0008.91
2024-01-19 18:32:00,SystemResetWarning,0835.5,5.01,000.00,019.1,018.5,000.0,027.3,020.4,11.6,0003.0,0015.49,0010.03,0008.92
2024-01-19 18:33:00,SystemResetWarning,0835.2,5.00,000.00,019.1,018.5,000.0,027.3,020.4,11.5,0003.0,0015.70,0010.03,0008.92
2024-01-19 18:34:00,SystemResetWarning,0835.2,4.99,000.00,019.1,018.5,000.0,027.4,020.4,11.5,0003.1,0015.78,0010.05,0008.91
2024-01-19 18:35:00,SystemResetWarning,0835.2,5.00,000.00,019.1,018.5,000.0,027.4,020.4,11.6,0003.2,0015.62,0010.06,0008.93
2024-01-19 18:36:00,SystemResetWarning,0835.2,4.99,000.00,019.1,018.5,000.0,027.4,020.4,11.5,0003.1,0015.66,0010.04,0008.93
2024-01-19 18:37:00,SystemResetWarning,0835.3,4.99,000.00,019.1,018.5,000.0,027.4,020.4,11.6,0003.0,0015.80,0010.07,0008.95
2024-01-19 18:38:00,SystemResetWarning,0835.3,5.01,000.00,019.1,018.5,000.0,027.4,020.4,11.6,0003.1,0015.39,0010.07,0008.96
2024-01-19 18:39:00,SystemResetWarning,0835.3,5.00,000.00,019.1,018.5,000.0,027.4,020.4,11.6,0002.9,0015.08,0010.10,0008.98
2024-01-19 18:40:00,SystemResetWarning,0835.2,5.01,000.00,019.1,018.5,000.0,027.4,020.4,11.6,0002.9,0015.10,0010.08,0008.99
2024-01-19 18:41:00,SystemResetWarning,0835.3,5.00,000.00,019.1,018.5,000.0,027.4,020.4,11.6,0002.7,0015.03,0010.06,0008.98
2024-01-19 18:42:00,SystemResetWarning,0835.3,5.00,000.00,019.1,018.5,000.0,027.4,020.5,11.6,0002.4,0015.03,0010.07,0008.98
2024-01-19 18:43:00,SystemResetWarning,0835.3,5.00,000.00,019.1,018.5,000.0,027.4,020.5,11.6,0002.4,0014.72,0010.06,0009.01
2024-01-19 18:44:00,SystemResetWarning,0835.1,5.00,000.00,019.2,018.6,000.0,027.4,020.5,11.7,0002.1,0014.39,0010.08,0009.03
2024-01-19 18:45:00,SystemResetWarning,0835.1,5.00,000.00,019.2,018.6,000.0,027.4,020.5,11.8,0001.9,0014.50,0010.15,0009.05
2024-01-19 18:46:00,SystemResetWarning,0835.1,5.00,000.00,019.2,018.6,000.0,027.4,020.5,11.8,0001.6,0014.52,0010.13,0009.05
2024-01-19 18:47:00,SystemResetWarning,0835.1,5.00,000.00,019.2,018.6,000.0,027.4,020.5,11.7,0001.6,0014.68,0010.15,0009.06
2024-01-19 18:48:00,SystemResetWarning,0835.0,5.00,000.00,019.2,018.6,000.0,027.4,020.5,11.6,0001.5,0014.68,0010.18,0009.08
2024-01-19 18:49:00,SystemResetWarning,0834.9,5.00,000.00,019.2,018.6,000.0,027.4,020.5,11.6,0001.3,0014.76,0010.20,0009.09
2024-01-19 18:50:00,SystemResetWarning,0834.9,5.00,000.00,019.2,018.6,000.0,027.4,020.5,11.9,0001.3,0014.63,0010.21,0009.10
2024-01-19 18:51:00,SystemResetWarning,0835.4,4.99,000.00,019.2,018.6,000.0,027.5,020.5,11.9,0001.5,0015.12,0010.23,0009.11
2024-01-19 18:52:00,SystemResetWarning,0835.2,5.00,000.00,019.2,018.6,000.0,027.5,020.5,11.8,0001.6,0015.64,0010.22,0009.12
2024-01-19 18:53:00,SystemResetWarning,0834.9,5.00,000.00,019.2,018.6,000.0,027.5,020.5,11.7,0001.9,0015.74,0010.19,0009.12
2024-01-19 18:54:00,SystemResetWarning,0835.0,5.00,000.00,019.2,018.6,000.0,027.5,020.5,11.7,0002.2,0016.30,0010.19,0009.11
2024-01-19 18:55:00,SystemResetWarning,0834.9,5.00,000.00,019.2,018.6,000.0,027.5,020.5,11.6,0002.3,0016.39,0010.12,0009.09
2024-01-19 18:56:00,SystemResetWarning,0835.2,5.00,000.00,019.2,018.6,000.0,027.5,020.5,11.6,0002.1,0016.74,0010.02,0009.08
2024-01-19 18:57:00,SystemResetWarning,0835.3,5.00,000.00,019.2,018.6,000.0,027.5,020.6,11.8,0002.3,0016.79,0010.01,0009.07
2024-01-19 18:58:00,SystemResetWarning,0834.8,5.00,000.00,019.2,018.6,000.0,027.5,020.6,11.7,0002.2,0016.79,0010.03,0009.07
2024-01-19 18:59:00,SystemResetWarning,0834.8,5.00,000.00,019.2,018.7,000.0,027.5,020.6,11.7,0002.6,0017.56,0010.00,0009.05
